Regional Weather Roundup
Issued by NWS

Home | Current Version | Previous Version | Text Only | Print | Product List | Glossary Off
Versions: 1 2 3 4 5 6 7 8 9 10 11 12 13 14 15 16 17 18 19 20 21 22 23 24 25 26 27 28 29 30 31 32 33 34 35 36 37 38 39 40 41 42 43 44 45 46 47 48 49 50

131
ASUS43 KMKX 171821
RWRWI

WISCONSIN REGIONAL WEATHER ROUNDUP
NATIONAL WEATHER SERVICE MILWAUKEE/SULLIVAN WI
100 PM CDT TUE OCT 17 2017

NOTE: "FAIR" INDICATES FEW OR NO CLOUDS BELOW 12,000 FEET WITH NO
SIGNIFICANT WEATHER AND/OR OBSTRUCTIONS TO VISIBILITY.

WIZ001-002-006>008-014>016-023>028-171900-
NORTHWEST WISCONSIN

CITY           SKY/WX    TMP DP  RH WIND       PRES   REMARKS
SUPERIOR ARPT  CLOUDY    69  44  40 SW7       29.95F
6HR MIN TEMP:  41; 6HR MAX TEMP:  69;

ASHLAND        MOSUNNY   69  40  34 SW3       29.96F
6HR MIN TEMP:  45; 6HR MAX TEMP:  69;

HAYWARD        SUNNY     66  38  35 S12       29.99F
6HR MIN TEMP:  33; 6HR MAX TEMP:  66;

SIREN          SUNNY     67  42  39 SE6       29.98F
6HR MIN TEMP:  35; 6HR MAX TEMP:  67;

CUMBERLAND     SUNNY     64  43  45 S7        30.00F
RICE LAKE      SUNNY     67  42  40 S8        30.02F
6HR MIN TEMP:  35; 6HR MAX TEMP:  67;

CHETEK         SUNNY     67  46  45 S8        30.01F
6HR MIN TEMP:  34; 6HR MAX TEMP:  67;

LADYSMITH      SUNNY     65  44  45 S6        30.03F
6HR MIN TEMP:  35; 6HR MAX TEMP:  65;

EAU CLAIRE     SUNNY     66  44  45 S9        30.01F
6HR MIN TEMP:  37; 6HR MAX TEMP:  66;

MENOMONIE      SUNNY     67  45  44 S9        30.02F
6HR MIN TEMP:  38; 6HR MAX TEMP:  67;

NEW RICHMOND   SUNNY     66  43  42 SW8       30.01F
6HR MIN TEMP:  38; 6HR MAX TEMP:  66; 6HR PCP:  0.03;

OSCEOLA        SUNNY     66  45  46 SW7       30.03S
6HR MIN TEMP:  36; 6HR MAX TEMP:  66; 6HR PCP:  0.03;

$$

WIZ003>005-009-010-017-018-171900-
NORTH CENTRAL WISCONSIN

CITY           SKY/WX    TMP DP  RH WIND       PRES   REMARKS
MANITOWISH WTR CLOUDY    65  40  39 S7        30.00F
6HR MIN TEMP:  32; 6HR MAX TEMP:  66;

ARBOR VITAE    MOSUNNY   64  43  46 CALM      30.01F
6HR MIN TEMP:  37; 6HR MAX TEMP:  64;

WOODRUFF       MOSUNNY   64  43  46 CALM      30.01F
6HR MIN TEMP:  37; 6HR MAX TEMP:  64;

RHINELANDER    CLOUDY    65  40  39 SW7       30.03F
6HR MIN TEMP:  37; 6HR MAX TEMP:  66;

EAGLE RIVER    SUNNY     64  36  34 SW7       30.01F
6HR MIN TEMP:  33; 6HR MAX TEMP:  64;

LAND O LAKES   MOSUNNY   67  34  29 SW7       30.02S
6HR MIN TEMP:  32; 6HR MAX TEMP:  67;

PHILLIPS       SUNNY     65  43  44 SW3       30.01F
6HR MIN TEMP:  34; 6HR MAX TEMP:  65;

TOMAHAWK       SUNNY     66  37  34 W5        30.02F
6HR MIN TEMP:  32; 6HR MAX TEMP:  66;

MEDFORD        SUNNY     63  43  48 SW6       30.03F
6HR MIN TEMP:  39; 6HR MAX TEMP:  64;

MERRILL        SUNNY     66  44  44 S6        30.04F
6HR MIN TEMP:  31; 6HR MAX TEMP:  66;

$$

WIZ029-030-035-036-043>047-171900-
CENTRAL WISCONSIN

CITY           SKY/WX    TMP DP  RH WIND       PRES   REMARKS
WAUSAU         SUNNY     64  44  48 VRB6      30.03F
6HR MIN TEMP:  42; 6HR MAX TEMP:  64;

MOSINEE        MOSUNNY   64  46  52 SW9       30.06F
MARSHFIELD     SUNNY     66  43  43 SW8       30.04F
6HR MIN TEMP:  43; 6HR MAX TEMP:  66;

STEVENS POINT  SUNNY     63  43  48 S3        30.06S
6HR MIN TEMP:  35; 6HR MAX TEMP:  63;

WAUPACA        SUNNY     68  45  43 SW5       30.06F
6HR MIN TEMP:  42; 6HR MAX TEMP:  68;

WAUTOMA        SUNNY     66  46  48 SW8       30.06F
6HR MIN TEMP:  35; 6HR MAX TEMP:  67;

WISC RAPIDS    SUNNY     65  47  52 SW8       30.06F
6HR MIN TEMP:  44; 6HR MAX TEMP:  65;

CAMP DOUGLAS   MOSUNNY   66  48  52 SW7       30.05F
$$

WIZ011>013-019>022-031-037>040-048>050-171900-
NORTHEAST WISCONSIN

CITY           SKY/WX    TMP DP  RH WIND       PRES   REMARKS
ANTIGO         SUNNY     64  44  49 SW6       30.04F
6HR MIN TEMP:  38; 6HR MAX TEMP:  64;

SHAWANO        SUNNY     68  45  42 SW8       30.03F
6HR MIN TEMP:  45; 6HR MAX TEMP:  68;

OCONTO         SUNNY     66  44  43 SW7       30.02F
6HR MIN TEMP:  46; 6HR MAX TEMP:  66;

STURGEON BAY   SUNNY     64  45  49 MISG      30.03S
6HR MIN TEMP:  52; 6HR MAX TEMP:  64;

GREEN BAY      SUNNY     64  50  60 SW9       30.04F
6HR MIN TEMP:  47; 6HR MAX TEMP:  64;

MANITOWOC      SUNNY     64  46  52 W9        30.06F
6HR MIN TEMP:  53; 6HR MAX TEMP:  64;

APPLETON       SUNNY     63  39  42 SW10      30.05F
CLINTONVILLE   SUNNY     66  43  42 SW6       30.04F
OSHKOSH        SUNNY     65  46  50 W12G17    30.06F
6HR MIN TEMP:  47; 6HR MAX TEMP:  65;

$$

WIZ032>034-041-042-053>061-171900-
SOUTHWEST WISCONSIN

CITY           SKY/WX    TMP DP  RH WIND       PRES   REMARKS
LA CROSSE      SUNNY     66  46  48 S8        30.06F
6HR MIN TEMP:  48; 6HR MAX TEMP:  66;

SPARTA         SUNNY     65  45  48 S6        30.07F
VIROQUA        SUNNY     64  46  52 SW8       30.08F
6HR MIN TEMP:  46; 6HR MAX TEMP:  64;

BOSCOBEL       SUNNY     68  44  42 SW8       30.09F
6HR MIN TEMP:  42; 6HR MAX TEMP:  68;

PRAIRIE DU CHI SUNNY     66  41  40 S6        30.08F
6HR MIN TEMP:  51; 6HR MAX TEMP:  67;

PLATTEVILLE    SUNNY     66  45  46 SW13      30.12F
6HR MIN TEMP:  46; 6HR MAX TEMP:  66;

$$

WIZ056-057-062-063-064-067-068-171900-
SOUTH CENTRAL WISCONSIN

CITY           SKY/WX    TMP DP  RH WIND       PRES   REMARKS
REEDSBURG      SUNNY     65  46  50 SW7       30.07F
6HR MIN TEMP:  49; 6HR MAX TEMP:  65;

BARABOO/DELLS  SUNNY     65  44  47 SW8       30.08F
6HR MIN TEMP:  49; 6HR MAX TEMP:  65;

LONE ROCK      SUNNY     66  47  50 SW9       30.09F
6HR MIN TEMP:  42; 6HR MAX TEMP:  67;

MINERAL POINT  SUNNY     68  43  40 W10       30.11F
MADISON        MOSUNNY   65  45  48 VRB6      30.09F
6HR MIN TEMP:  52; 6HR MAX TEMP:  65;

MIDDLETON      SUNNY     67  46  45 W9        30.10F
6HR MIN TEMP:  51; 6HR MAX TEMP:  67;

WATERTOWN      SUNNY     66  45  46 SW12G17   30.09F
6HR MIN TEMP:  48; 6HR MAX TEMP:  66;

MONROE         SUNNY     66  41  39 SW18      30.11F
JANESVILLE     MOSUNNY   70  41  35 MISG      30.11F
$$

WIZ051-052-058>065-066-070>072-171900-
SOUTHEAST WISCONSIN

CITY           SKY/WX    TMP DP  RH WIND       PRES   REMARKS
MILWAUKEE      MOSUNNY   70  42  36 W13G26    30.11F
6HR MIN TEMP:  51; 6HR MAX TEMP:  70;

WAUKESHA       SUNNY     64  43  45 W13       30.12F
MILWAUKEE/TIMM SUNNY     66  39  37 W8        30.11S
RACINE         SUNNY     70  44  39 SW15G23   30.12F
6HR MIN TEMP:  52; 6HR MAX TEMP:  70;

BURLINGTON     SUNNY     69  44  40 SW21      30.11F
6HR MIN TEMP:  48; 6HR MAX TEMP:  70;

KENOSHA        SUNNY     70  43  37 SW17G25   30.12F
6HR MIN TEMP:  51; 6HR MAX TEMP:  70;

FOND DU LAC    SUNNY     66  43  43 SW9       30.06F
6HR MIN TEMP:  48; 6HR MAX TEMP:  66;

SHEBOYGAN      SUNNY     66  47  50 SW13      30.06F
6HR MIN TEMP:  51; 6HR MAX TEMP:  66;

WEST BEND      SUNNY     64  43  45 SW10      30.08F
JUNEAU         SUNNY     65  46  50 S12       30.09F
6HR MIN TEMP:  44; 6HR MAX TEMP:  65;

$$

LSZ147-162-171900-
LAKE SUPERIOR

STATION/POSITION TIME  TEMP    WIND        PRES    WAVE
                       AIR SEA DIR/SP/G            HT/PER
                 (UTC) (F)     (DEG/KT/KT) (MB)    (FT/S)
W MID LAKE BUOY  1750   53 53              1014.5S   2/ 4
DEVILS ISLAND    1800   55     240/  6/  7 1014.6F
SAXON HARBOR     1740   59      70/  3/  4 1014.2F
$$

LMZ867-665-643>646-171900-
LAKE MICHIGAN

STATION/POSITION TIME  TEMP    WIND        PRES    WAVE
                       AIR SEA DIR/SP/G            HT/PER
                 (UTC) (F)     (DEG/KT/KT) (MB)    (FT/S)
S GREEN BAY BUOY 1800   59 58  210/



USA.gov is the U.S. government's official web portal to all federal, state and local government web resources and services.